When you browse on this site, cookies collect data to enhance your experience and personalize the content and advertising you see.
Visit our Privacy Policy to learn more. By continuing to use the site, you agree to this use of cookies and data.
  • In Germany
  • List of Countries
  • For 7 days
  • Water Temperature
  • Satellite Maps
  • Weather Map
  • Weather Widgets
  • user-avatar
    Login

    Hourly Weather Mazyr

    Today, 22 May, Wednesday

    Time Temperature Precipitation Wind Pressure Humidity
    00:00 +14°C° 0 mm 3 mps 742 mmHg 96%
    01:00 +14°C° 0 mm 2 mps 742 mmHg 96%
    02:00 +14°C° 0 mm 2 mps 742 mmHg 96%
    03:00 +13°C° 0 mm 2 mps 742 mmHg 96%
    04:00 +13°C° 0 mm 2 mps 742 mmHg 96%
    05:00 +13°C° 0 mm 2 mps 742 mmHg 96%
    06:00 +14°C° 0 mm 2 mps 742 mmHg 90%
    07:00 +16°C° 0 mm 2 mps 742 mmHg 84%
    08:00 +19°C° 0 mm 1 mps 742 mmHg 77%
    09:00 +20°C° 0 mm 1 mps 742 mmHg 69%
    10:00 +22°C° 0 mm 1 mps 742 mmHg 60%
    11:00 +23°C° 0 mm 2 mps 742 mmHg 51%
    12:00 +24°C° 0 mm 1 mps 742 mmHg 48%
    13:00 +25°C° 0 mm 1 mps 742 mmHg 45%
    14:00 +25°C° 0 mm 1 mps 741 mmHg 43%
    15:00 +25°C° 0 mm 1 mps 741 mmHg 44%
    16:00 +25°C° 0 mm 1 mps 741 mmHg 46%
    17:00 +24°C° 0 mm 1 mps 741 mmHg 47%
    18:00 +23°C° 0 mm 1 mps 741 mmHg 53%
    19:00 +21°C° 0 mm 1 mps 741 mmHg 58%
    20:00 +19°C° 0 mm 1 mps 741 mmHg 64%
    21:00 +18°C° 0 mm 1 mps 741 mmHg 69%
    22:00 +16°C° 0 mm 1 mps 741 mmHg 73%
    23:00 +15°C° 0 mm 2 mps 741 mmHg 78%

    Tomorrow, 23 May, Thursday

    Time Temperature Precipitation Wind Pressure Humidity
    00:00 +15°C° 0 mm 1 mps 741 mmHg 79%
    01:00 +15°C° 0 mm 1 mps 741 mmHg 81%
    02:00 +14°C° 0 mm 1 mps 741 mmHg 82%
    03:00 +14°C° 0 mm 1 mps 741 mmHg 83%
    04:00 +14°C° 0 mm 1 mps 741 mmHg 84%
    05:00 +14°C° 0 mm 1 mps 741 mmHg 85%
    06:00 +16°C° 0 mm 1 mps 741 mmHg 79%
    07:00 +19°C° 0 mm 1 mps 741 mmHg 73%
    08:00 +21°C° 0 mm 1 mps 741 mmHg 67%
    09:00 +22°C° 0 mm 1 mps 741 mmHg 61%
    10:00 +24°C° 0 mm 1 mps 741 mmHg 54%
    11:00 +26°C° 0 mm 1 mps 741 mmHg 48%
    12:00 +26°C° 0 mm 1 mps 741 mmHg 46%
    13:00 +26°C° 0 mm 1 mps 741 mmHg 44%
    14:00 +27°C° 0 mm 2 mps 741 mmHg 42%
    15:00 +26°C° 0 mm 1 mps 741 mmHg 44%
    16:00 +26°C° 0 mm 1 mps 741 mmHg 46%
    17:00 +26°C° 0 mm 1 mps 740 mmHg 48%
    18:00 +24°C° 0 mm 1 mps 741 mmHg 53%
    19:00 +22°C° 0 mm 1 mps 741 mmHg 58%
    20:00 +20°C° 0 mm 1 mps 741 mmHg 63%
    21:00 +19°C° 0 mm 1 mps 741 mmHg 66%
    22:00 +18°C° 0 mm 1 mps 741 mmHg 70%
    23:00 +16°C° 0 mm 0 mps 741 mmHg 73%

    Day after tomorrow, 24 May, Friday

    Time Temperature Precipitation Wind Pressure Humidity
    00:00 +16°C° 0 mm 1 mps 741 mmHg 76%
    01:00 +16°C° 0 mm 1 mps 741 mmHg 79%
    02:00 +15°C° 0 mm 1 mps 741 mmHg 82%
    03:00 +15°C° 0 mm 1 mps 741 mmHg 83%
    04:00 +15°C° 0 mm 1 mps 741 mmHg 84%
    05:00 +14°C° 0 mm 0 mps 741 mmHg 85%
    06:00 +16°C° 0 mm 0 mps 741 mmHg 78%
    07:00 +19°C° 0 mm 0 mps 742 mmHg 72%
    08:00 +21°C° 0 mm 0 mps 742 mmHg 65%
    09:00 +24°C° 0 mm 1 mps 742 mmHg 59%
    10:00 +25°C° 0 mm 1 mps 742 mmHg 53%
    11:00 +27°C° 0 mm 1 mps 742 mmHg 46%
    12:00 +27°C° 0 mm 1 mps 741 mmHg 47%
    13:00 +26°C° 0 mm 1 mps 741 mmHg 48%
    14:00 +26°C° 0 mm 2 mps 741 mmHg 49%
    15:00 +26°C° 0.4 mm 2 mps 741 mmHg 54%
    16:00 +25°C° 0.4 mm 2 mps 741 mmHg 59%
    17:00 +25°C° 0.4 mm 2 mps 740 mmHg 64%
    18:00 +23°C° 0.5 mm 2 mps 740 mmHg 71%
    19:00 +20°C° 0.5 mm 2 mps 741 mmHg 79%
    20:00 +18°C° 0.5 mm 2 mps 741 mmHg 87%
    21:00 +17°C° 0.1 mm 2 mps 740 mmHg 89%
    22:00 +17°C° 0.1 mm 2 mps 740 mmHg 92%
    23:00 +16°C° 0.1 mm 2 mps 740 mmHg 95%

    25 May, Saturday

    Time Temperature Precipitation Wind Pressure Humidity
    00:00 +16°C° 0.1 mm 2 mps 740 mmHg 95%
    01:00 +15°C° 0.1 mm 2 mps 740 mmHg 96%
    02:00 +15°C° 0.1 mm 2 mps 740 mmHg 97%
    03:00 +15°C° 0 mm 2 mps 740 mmHg 97%
    04:00 +14°C° 0 mm 2 mps 740 mmHg 97%
    05:00 +14°C° 0 mm 2 mps 740 mmHg 97%
    06:00 +14°C° 0 mm 3 mps 740 mmHg 95%
    07:00 +14°C° 0 mm 3 mps 740 mmHg 93%
    08:00 +15°C° 0 mm 4 mps 740 mmHg 90%
    09:00 +17°C° 0 mm 4 mps 740 mmHg 85%
    10:00 +17°C° 0 mm 5 mps 740 mmHg 79%
    11:00 +19°C° 0 mm 5 mps 740 mmHg 74%
    12:00 +20°C° 0 mm 5 mps 740 mmHg 64%
    13:00 +21°C° 0 mm 5 mps 740 mmHg 55%
    14:00 +22°C° 0 mm 5 mps 740 mmHg 46%
    15:00 +22°C° 0 mm 5 mps 740 mmHg 46%
    16:00 +21°C° 0 mm 4 mps 740 mmHg 46%
    17:00 +21°C° 0 mm 4 mps 740 mmHg 46%
    18:00 +19°C° 0 mm 3 mps 740 mmHg 54%
    19:00 +18°C° 0 mm 3 mps 740 mmHg 62%
    20:00 +16°C° 0 mm 2 mps 740 mmHg 70%
    21:00 +14°C° 0 mm 3 mps 740 mmHg 76%
    22:00 +14°C° 0 mm 3 mps 740 mmHg 82%
    23:00 +13°C° 0 mm 3 mps 740 mmHg 89%

    26 May, Sunday

    Time Temperature Precipitation Wind Pressure Humidity
    00:00 +12°C° 0 mm 3 mps 740 mmHg 91%
    01:00 +12°C° 0 mm 3 mps 741 mmHg 93%
    02:00 +12°C° 0 mm 3 mps 741 mmHg 95%
    03:00 +11°C° 0 mm 3 mps 741 mmHg 95%
    04:00 +11°C° 0 mm 3 mps 741 mmHg 95%
    05:00 +10°C° 0 mm 3 mps 741 mmHg 96%
    06:00 +11°C° 0 mm 3 mps 741 mmHg 91%
    07:00 +12°C° 0 mm 3 mps 741 mmHg 86%
    08:00 +12°C° 0 mm 3 mps 742 mmHg 81%
    09:00 +13°C° 0.1 mm 3 mps 741 mmHg 74%
    10:00 +14°C° 0.1 mm 4 mps 741 mmHg 68%
    11:00 +15°C° 0.1 mm 4 mps 741 mmHg 61%
    12:00 +15°C° 0.1 mm 4 mps 741 mmHg 64%
    13:00 +15°C° 0.1 mm 4 mps 741 mmHg 67%
    14:00 +15°C° 0.1 mm 4 mps 741 mmHg 69%
    15:00 +15°C° 0.1 mm 4 mps 740 mmHg 66%
    16:00 +17°C° 0.1 mm 4 mps 740 mmHg 63%
    17:00 +17°C° 0.1 mm 5 mps 740 mmHg 60%
    18:00 +15°C° 0 mm 4 mps 740 mmHg 65%
    19:00 +14°C° 0 mm 4 mps 740 mmHg 69%
    20:00 +13°C° 0 mm 3 mps 740 mmHg 73%
    21:00 +13°C° 0 mm 3 mps 740 mmHg 75%
    22:00 +12°C° 0 mm 3 mps 740 mmHg 78%
    23:00 +11°C° 0 mm 3 mps 740 mmHg 80%

    27 May, Monday

    Time Temperature Precipitation Wind Pressure Humidity
    00:00 +11°C° 0 mm 3 mps 740 mmHg 81%
    01:00 +11°C° 0 mm 4 mps 740 mmHg 81%
    02:00 +11°C° 0 mm 4 mps 741 mmHg 81%
    03:00 +10°C° 0.1 mm 4 mps 741 mmHg 82%
    04:00 +10°C° 0.1 mm 4 mps 741 mmHg 83%
    05:00 +9°C° 0.1 mm 5 mps 741 mmHg 85%
    06:00 +9°C° 0.1 mm 5 mps 741 mmHg 78%
    07:00 +10°C° 0.1 mm 6 mps 742 mmHg 72%
    08:00 +10°C° 0.1 mm 6 mps 742 mmHg 65%
    09:00 +13°C° 0 mm 6 mps 742 mmHg 60%
    10:00 +14°C° 0 mm 6 mps 742 mmHg 55%
    11:00 +15°C° 0 mm 6 mps 743 mmHg 50%
    12:00 +16°C° 0 mm 6 mps 743 mmHg 49%
    13:00 +17°C° 0 mm 6 mps 743 mmHg 48%
    14:00 +19°C° 0 mm 6 mps 743 mmHg 47%
    15:00 +19°C° 0 mm 6 mps 743 mmHg 49%
    16:00 +19°C° 0 mm 5 mps 743 mmHg 50%
    17:00 +19°C° 0 mm 5 mps 743 mmHg 51%
    18:00 +17°C° 0 mm 4 mps 743 mmHg 57%
    19:00 +16°C° 0 mm 2 mps 743 mmHg 63%
    20:00 +14°C° 0 mm 1 mps 744 mmHg 69%
    21:00 +14°C° 0 mm 2 mps 744 mmHg 71%
    22:00 +13°C° 0 mm 2 mps 744 mmHg 72%
    23:00 +13°C° 0 mm 2 mps 744 mmHg 74%
    Show more